SCP
0 0 0 0 0 0 0 0 0 0 0 0 0 0 0 0 0 0 0 0 0 0 0 0 0 0 0 0 0 0 0 0 0 0 0 0 0 0 0 0 0 0 0 0
0 0 0 0 0 0 0 0 0 0 0 0 0 0 0 0 0 0 0 0 0 0 0 0 0 0 0 0 0 0 0 0 0 0 0 0 0 0 0 0 0 0 0 0
0 0 0 0 0 0 0 0 0 0 0 0 0 0 0 0 0 0 0 0 0 0 0 0 0 0 0 0 0 0 0 0 0 0 0 0 0 0 0 0 0 0 0 0
0 0 0 0 0 0 0 0 0 0 0 0 0 0 0 0 0 0 0 0 0 0 0 0 0 0 0 0 0 0 0 0 0 0 0 0 0 0 0 0 0 0 0 0
0 0 0 0 0 0 0 0 0 0 0 0 0 0 0 0 0 0 0 0 0 0 0 0 0 0 0 0 0 0 0 0 0 0 0 0 0 0 0 0 0 0 0 0
0 0 0 0 0 0 0 0 0 0 0 0 0 0 0 0 0 0 0 0 0 0 0 0 0 0 0 0 0 0 0 0 0 0 0 0 0 0 0 0 0 0 0 0
0 0 0 0 0 0 0 0 0 0 0 0 0 0 0 0 0 0 0 0 0 0 0 0 0 0 0 0 0 0 0 0 0 0 0 0 0 0 0 0 0 0 0 0
0 0 0 0 0 0 0 0 0 0 0 0 0 0 0 0 0 0 0 0 0 0 0 0 0 0 0 0 0 0 0 0 0 0 0 0 0 0 0 0 0 0 0 0
0 0 0 0 0 0 0 0 0 0 0 0 0 0 0 0 0 0 0 0 0 0 0 0 0 0 0 0 0 0 0 0 0 0 0 0 0 0 0 0 0 0 0 0
0 0 0 0 0 0 0 0 0 0 0 0 0 0 0 0 0 0 0 0 0 0 0 0 0 0 0 0 0 0 0 0 0 0 0 0 0 0 0 0 0 0 0 0
0 0 0 0 0 0 0 0 0 0 0 0 0 0 0 0 0 0 0 0 0 0 0 0 0 0 0 0 0 0 0 0 0 0 0 0 0 0 0 0 0 0 0 0
0 0 0 0 0 0 0 0 0 0 0 0 0 0 0 0 0 0 0 0 0 0 0 0 0 0 0 0 0 0 0 0 0 0 0 0 0 0 0 0 0 0 0 0
-0 0 0 0 0 0 0 0 0 0 0 0 0 0 0 0 0 0 0 0 0 0 0 0 0 0 0 0 0 0 0 0 0 0 0 0 0 0 0 0 0 0 0 0
0 0 0 0 0 0 0 0 0 0 0 0 0 0 0 0 0 0 0 0 0 0 0 0 0 0 0 0 0 0 0 0 0 0 0 0 0 0 0 0 0 0 0 0
0 0 0 0 0 0 0 0 0 0 0 0 0 0 0 0 0 0 0 0 0 0 0 0 0 0 0 0 0 -0 -0 -0 0 0 0 0 0 0 0 0 0 0 0 0
0 0 0 0 0 0 0 0 0 0 0 0 0 0 0 0 0 0 0 0 0 0 0 0 0 0 0 0 0 0 -0 -0 -0 -0 0 0 0 0 0 0 0 0 0 0
0 0 0 0 0 0 0 0 0 0 0 0 0 0 0 0 0 0 0 0 0 0 0 0 0 0 0 0 0 0 0 0 0 -0 0 0 0 0 0 0 0 0 0 0
0 0 0 0 0 0 0 0 0 0 0 0 0 0 0 0 0 0 0 0 0 0 0 0 0 0 0 0 0 0 0 0 0 0 0 0 0 0 0 0 0 0 0 0
0 0 0 0 0 0 0 0 0 0 0 0 0 0 0 0 0 0 0 0 0 0 0 0 0 0 0 0 0 0 0 0 0 0 0 0 0 0 0 0 0 0 0 0
0 0 0 0 0 0 0 0 0 0 0 0 0 0 0 0 0 0 0 0 0 0 0 0 0 0 0 0 0 0 0 0 0 0 0 0 0 0 0 0 0 0 0 0
0 0 0 0 0 0 0 0 0 0 0 0 0 0 0 0 0 0 0 0 0 0 0 0 0 0 0 0 0 0 0 0 0 0 0 0 0 0 0 0 0 0 0 0
0 0 0 0 0 0 0 0 0 0 0 0 0 0 0 0 0 0 0 0 0 0 0 0 0 0 0 0 0 0 0 0 0 0 0 0 0 0 0 0 0 0 0 0
0 0 0 0 0 0 0 0 0 0 0 0 0 0 0 0 0 0 0 0 0 0 0 0 0 0 0 0 0 0 0 0 0 0 0 0 0 0 0 0 0 0 0 0
0 0 0 0 0 0 0 0 0 0 0 0 0 0 0 0 0 0 0 0 0 0 0 0 0 0 0 0 0 0 0 0 0 0 0 0 0 0 0 0 0 0 0 0
0 0 0 0 0 0 0 0 0 0 0 0 0 0 0 0 0 0 0 0 0 0 0 0 0 0 0 0 0 0 0 0 0 0 0 0 0 0 0 0 0 0 0 0
0 0 0 0 0 0 0 0 0 0 0 0 0 0 0 0 0 0 0 0 0 0 0 0 0 0 0 0 0 0 0 0 0 0 0 0 0 0 0 0 0 0 0 0
Wind_Speed
1 3 2 6 7 5 3 2 3 4 4 5 5 5 6 7 7 7 7 8 8 8 6 5 6 7 6 5 5 5 5 4 4 3 3 2 1 1 1 1 2 3 3 3
3 3 7 5 3 3 2 1 2 3 2 3 3 5 5 7 10 10 10 10 9 7 6 6 5 6 6 6 5 5 6 5 4 3 2 2 2 1 1 1 2 2 3 3
5 6 3 2 3 2 2 3 3 2 1 2 1 4 3 4 5 6 8 9 10 12 11 8 7 6 6 6 7 6 5 5 5 4 3 3 3 3 2 2 1 1 2 3
4 5 1 1 3 2 3 3 3 2 2 2 1 2 7 4 4 6 8 8 10 11 10 9 8 7 7 7 6 6 6 5 5 5 5 5 3 2 2 1 0 0 1 2
4 3 2 3 4 3 4 3 1 2 2 1 1 1 7 1 4 7 8 9 10 11 11 11 9 9 7 7 7 6 6 5 4 5 5 5 3 2 1 1 1 0 1 1
5 3 3 4 3 2 2 4 5 5 4 2 4 3 6 4 8 7 8 9 10 11 10 9 8 7 6 6 6 6 6 5 4 5 5 5 5 4 3 2 1 0 0 1
3 3 2 1 1 2 4 6 4 5 4 5 3 2 7 7 6 8 10 10 10 11 10 9 9 9 8 7 7 6 7 5 5 5 5 5 5 5 5 4 3 2 1 0
2 4 4 2 4 3 2 8 6 4 3 5 3 3 7 5 3 4 6 7 9 10 10 11 11 10 9 9 7 7 7 5 5 5 4 4 4 3 3 3 3 3 2 2
3 4 4 3 3 6 3 3 6 6 1 1 3 3 4 4 3 3 5 6 7 9 10 10 10 10 9 9 8 8 7 6 5 5 4 4 4 4 4 3 3 2 2 2
4 2 4 2 2 1 5 6 5 4 2 2 4 3 3 2 1 2 4 6 7 7 8 9 9 9 9 8 7 7 7 6 5 5 5 4 4 4 4 3 3 3 2 3
2 2 4 2 3 5 2 2 4 4 4 4 2 6 5 6 5 5 5 6 7 9 9 9 9 9 8 7 7 7 6 5 5 5 4 4 4 4 4 3 3 3 3 3
2 4 2 5 5 5 5 5 6 4 3 4 3 7 5 5 5 5 5 5 6 8 8 8 9 8 7 7 7 7 6 6 5 5 4 5 4 4 3 3 3 3 3 3
3 4 1 4 5 2 1 3 4 5 4 3 4 7 4 1 2 3 5 5 5 6 6 7 7 7 8 8 8 7 6 6 5 5 5 4 4 4 4 4 3 3 3 3
4 4 6 7 6 3 4 4 3 4 4 4 6 6 4 3 2 3 4 5 6 6 7 8 7 7 8 8 8 8 7 6 6 5 5 5 5 5 4 4 3 4 4 3
4 3 4 5 6 4 5 7 6 6 7 7 7 7 8 7 6 6 5 5 6 6 7 8 8 7 8 7 7 7 7 6 6 6 6 6 5 4 4 4 4 3 4 4
2 2 2 4 4 4 6 8 8 7 6 6 5 7 6 5 3 4 5 6 6 7 7 8 8 8 8 9 8 8 7 6 7 7 7 6 5 5 5 4 4 3 3 3
1 2 1 4 4 3 8 8 8 5 5 6 7 8 3 3 5 6 7 7 7 7 7 8 9 9 9 9 9 9 8 7 7 7 6 6 6 6 5 5 4 4 4 4
5 3 2 2 1 7 8 5 5 6 5 5 5 5 5 7 7 6 6 7 6 5 6 7 8 8 8 7 7 7 7 7 7 7 6 6 6 6 5 5 5 4 4 4
8 7 3 2 4 7 6 4 4 5 5 3 3 2 3 4 3 0 3 6 7 7 6 6 7 7 7 7 7 7 7 7 7 7 7 7 7 7 6 6 6 5 4 4
5 6 4 3 4 7 7 5 3 3 4 4 3 3 2 4 3 4 4 4 4 4 4 4 4 4 6 6 6 7 7 7 8 9 8 7 7 8 8 7 6 4 4 5
3 4 6 5 5 7 8 6 1 4 7 3 4 4 4 4 6 6 4 4 4 4 3 4 5 5 5 6 7 7 8 9 9 7 7 7 7 8 8 6 5 4 5 4
6 5 6 5 5 8 4 1 3 6 3 2 3 4 4 4 3 3 4 4 3 2 2 4 5 4 4 5 7 7 8 8 6 6 6 7 7 7 6 6 5 5 6 5
5 7 5 7 7 5 2 3 4 2 2 2 3 3 4 3 2 3 4 4 4 4 4 4 4 4 3 5 6 7 6 5 6 6 6 5 5 5 5 7 6 5 5 4
3 2 3 3 6 5 3 2 2 1 3 3 3 3 3 3 3 3 4 4 3 3 3 3 4 4 4 4 5 6 5 6 7 7 6 6 5 4 3 4 5 5 5 5
5 2 2 4 5 4 4 3 3 3 1 1 2 2 4 4 3 3 4 4 4 3 3 4 5 5 5 5 4 4 5 6 7 7 6 6 5 6 4 3 3 4 5 6
4 5 5 6 5 3 5 5 4 2 2 2 2 1 2 3 4 3 3 3 3 3 2 3 3 3 4 4 4 4 5 7 8 7 6 5 5 5 5 4 3 2 3 5
Wind_Direction
14 78 207 214 203 209 213 219 241 242 220 176 201 227 220 200 192 188 188 186 185 184 184 169 156 151 146 140 138 141 140 145 131 113 109 103 87 61 56 60 86 97 106 114
45 255 236 225 234 235 227 241 265 290 237 175 211 246 236 198 202 195 190 186 184 177 172 174 163 154 153 153 150 148 152 156 152 146 144 142 134 113 104 68 71 94 108 115
188 239 238 220 249 238 253 200 213 229 315 28 91 318 280 247 213 200 193 183 179 178 178 177 171 167 158 158 161 162 165 159 156 145 116 93 68 47 39 37 40 54 108 123
230 253 251 233 246 199 262 239 194 156 88 297 117 279 282 250 220 207 201 186 181 181 178 177 174 170 173 172 161 157 160 153 153 144 136 139 139 148 192 194 178 64 96 119
237 222 193 221 236 198 222 232 168 148 126 338 309 190 284 253 222 221 205 192 184 180 178 179 178 178 176 163 154 155 152 147 151 150 146 142 148 168 178 170 132 84 58 102
245 245 196 211 236 200 171 50 40 51 70 321 248 181 275 240 219 212 200 192 184 178 178 178 174 163 160 152 149 151 151 152 154 150 149 152 161 163 152 160 163 156 43 61
307 288 258 202 359 345 85 80 35 10 13 266 260 174 253 251 229 199 191 189 181 175 172 170 166 165 162 157 156 156 152 156 158 153 158 164 166 167 169 174 172 169 163 174
185 266 241 203 182 189 153 133 148 184 224 284 323 230 265 276 230 177 173 170 167 170 174 175 175 171 167 165 162 160 157 161 165 160 167 167 166 166 174 178 169 174 182 190
174 255 271 220 177 147 141 164 164 142 207 276 291 288 319 7 51 100 132 143 165 175 176 176 174 172 168 168 170 166 162 165 172 174 167 167 172 171 175 175 166 172 175 168
153 241 281 275 78 114 158 154 103 117 155 252 284 260 237 237 207 147 154 166 177 175 174 173 174 175 172 171 172 165 161 169 176 176 178 175 179 176 169 161 167 166 167 156
124 153 299 344 191 198 145 131 122 138 160 162 246 270 227 201 191 182 188 181 173 175 178 176 176 173 169 165 165 167 166 165 172 176 175 170 176 174 163 162 171 168 165 161
135 123 249 259 260 201 174 175 147 155 223 174 180 265 268 192 190 182 185 182 178 175 175 172 169 166 166 168 170 174 173 173 180 178 169 170 169 167 164 169 173 165 166 175
128 113 69 333 330 350 209 196 167 150 141 166 179 259 293 171 158 185 181 178 174 165 158 157 161 168 174 177 177 177 178 182 182 170 163 165 169 171 179 180 168 158 155 159
117 135 173 200 224 235 259 258 206 153 176 212 216 240 273 245 194 196 186 181 173 167 164 164 171 176 179 181 183 182 183 182 176 170 167 171 177 178 184 179 166 161 158 157
102 168 215 234 245 237 249 252 233 219 204 201 227 224 236 224 205 195 182 172 165 170 171 175 179 181 181 182 186 185 185 181 173 169 176 185 182 172 172 173 170 159 156 158
76 174 233 274 268 257 266 257 244 236 226 216 223 244 246 220 178 171 173 167 172 183 185 184 183 182 185 187 188 186 186 184 172 174 185 187 174 169 173 175 165 156 155 148
153 130 175 258 277 297 260 238 219 223 224 200 218 233 228 173 174 182 182 175 179 187 185 185 189 190 191 191 187 187 187 178 176 182 185 182 177 176 179 172 160 163 167 155
177 157 170 230 212 231 241 237 208 213 239 224 215 214 193 187 190 181 169 170 176 186 193 191 190 194 193 188 185 182 174 171 178 182 185 183 180 181 176 168 171 175 162 159
179 165 171 184 220 261 280 264 212 196 249 248 206 197 192 183 130 266 208 184 187 191 196 196 190 188 187 184 180 171 173 175 179 186 189 187 183 181 177 177 181 176 162 163
160 153 160 183 205 233 245 260 238 152 243 251 178 169 160 126 142 238 235 206 200 193 187 186 182 171 174 182 171 168 177 180 191 195 193 188 185 184 187 190 184 171 162 169
142 160 187 200 223 257 258 271 82 179 231 240 181 167 156 172 202 211 201 199 197 187 175 163 161 171 182 177 167 176 181 194 199 192 187 184 187 189 188 184 175 161 160 157
180 181 193 183 206 244 272 356 183 221 231 205 182 179 178 199 213 192 179 180 175 171 162 164 166 181 182 169 167 176 194 200 185 173 179 185 187 188 178 170 171 164 161 160
197 191 188 196 217 238 244 223 254 241 226 226 194 192 177 178 198 189 174 173 174 174 180 180 175 180 187 178 171 181 202 184 168 165 174 178 174 178 172 171 171 162 165 169
257 198 176 231 254 256 265 259 301 272 238 229 190 171 159 173 181 179 175 173 177 182 187 180 171 176 193 190 185 192 189 173 167 171 175 166 157 154 155 164 169 169 175 177
230 205 210 244 258 292 290 281 293 289 266 200 178 177 167 150 168 177 177 178 181 189 188 179 180 188 196 190 187 185 171 163 166 169 167 161 155 153 149 149 169 179 188 183
225 201 198 228 226 215 257 276 292 273 249 205 164 174 188 164 169 177 176 182 173 173 178 179 188 192 194 185 180 176 168 165 163 163 163 160 154 151 149 141 112 90 141 153